[[{"header":{"parameterUnit":"m.s-1","parameterCategory":1,"la1":30.2991,"la2":30.254,"lo1":-89.0895,"lo2":-89.0444,"dy":0.0017,"dx":0.0017,"nx":28,"ny":28,"refTime":"2024-06-08T21:00:00:Z","depth":0,"parameterNumber":2,"parameterNumberName":"U-component_of_WINDS"},"data":[0,0,0,0,0,0,0,0,0,0,0,0,0,0,0,0,0,0,0,0,0,0,0,0,0,0,0,0,0,0,0,0,0,0,0,0,0,0,0,0,0,0,0,0,0,0,0,0,0,0,0,0,0,0,0,0,0,0,2.522,2.5221,0,2.5366,2.5368,2.5369,2.5378,2.5376,2.5374,2.5373,2.5525,2.5531,2.5536,0,0,0,0,0,0,0,0,0,0,0,0,0,2.4948,2.4952,2.522,2.5222,2.5223,2.5366,2.5368,2.537,2.5378,2.5376,2.5374,2.5372,2.5523,2.553,2.5537,0,0,0,0,0,0,0,0,0,0,0,0,0,2.5077,2.4954,2.5219,2.5245,2.5248,2.5365,2.5368,2.537,2.5379,2.5376,2.5373,2.5371,2.5521,2.5529,2.5538,2.564,0,0,2.5563,2.5567,0,0,0,0,0,0,0,0,2.507,2.5087,2.5239,2.5243,2.5247,2.5351,2.5328,2.5461,2.5379,2.5329,2.5373,2.537,2.5469,2.5482,2.5515,2.5647,2.5654,2.5564,2.5569,2.5573,2.5575,0,0,0,0,0,0,0,2.5061,2.5081,2.5278,2.5241,2.5246,2.5249,2.5264,2.5353,2.5412,2.5333,2.5334,2.5351,2.5471,2.5507,2.5519,2.5656,2.5564,2.5571,2.5577,2.558,2.5876,2.5879,0,0,0,0,0,0,2.5047,2.5073,2.5273,2.5282,2.515,2.5256,2.5273,2.532,2.5411,2.5422,2.5353,2.5351,2.5494,2.5509,2.5524,2.5648,2.5573,2.5581,2.5586,2.5874,2.5877,2.588,0,0,0,0,0,0,2.5041,2.5064,2.5267,2.5178,2.5204,2.5263,2.5316,2.5325,2.536,2.5426,2.5437,2.5379,2.5492,2.5512,2.561,2.5653,2.5584,2.5592,2.587,2.5875,2.5878,2.5898,0,0,0,0,0,0,2.5033,2.5062,2.5102,2.5179,2.5209,2.5351,2.5319,2.5329,2.5374,2.5373,2.5453,2.5464,2.5492,2.5598,2.5619,2.5664,2.5599,2.5867,2.5872,2.5877,2.5894,2.5902,2.591,0,0,0,0,0,2.5023,2.5103,2.5104,2.5128,2.526,2.5354,2.5371,2.5401,2.5378,2.5418,2.546,2.5461,2.5645,2.5608,2.5631,2.568,2.5864,2.5871,2.5877,2.589,2.5901,2.5909,0,0,0,0,0,0,2.5032,2.5114,2.5116,2.5223,2.5281,2.5355,2.5407,2.5412,2.5479,2.5475,2.551,2.5528,2.5624,2.5662,2.5619,2.5782,2.5752,2.5763,2.5754,2.5764,2.5772,2.5761,2.5606,0,0,0,0,0,2.5046,2.5115,2.5183,2.5271,2.53,2.5348,2.539,2.5408,2.547,2.5495,2.5544,2.5605,2.5676,2.5722,2.5792,2.5899,2.5915,2.5943,2.5951,2.5957,2.5967,2.6024,2.6036,2.5901,2.5901,2.5901,0,0,2.5077,2.513,2.5172,2.5274,2.5321,2.5392,2.5369,2.5446,2.5498,2.5507,2.5602,2.564,2.5709,2.5811,2.5859,2.5846,2.6008,2.5966,2.597,2.5976,2.6031,2.6044,2.6055,2.5905,2.5904,2.5904,0,0,2.5168,2.5216,2.5293,2.534,2.541,2.5441,2.546,2.5532,2.5557,2.5652,2.566,2.5723,2.5845,2.5894,2.5934,2.6039,2.6042,2.6061,2.6103,2.6158,2.6168,2.6178,2.6214,2.6226,2.607,2.607,2.607,0,2.5198,2.5304,2.5332,2.5407,2.5451,2.5461,2.5538,2.5583,2.5673,2.5703,2.5686,2.5838,2.5886,2.5998,2.6023,2.6056,2.6077,2.6053,2.6164,2.6174,2.6184,2.6218,2.6232,2.6072,2.6072,2.6072,2.6071,0,2.5335,2.5408,2.5462,2.5546,2.5596,2.5672,2.5712,2.5759,2.5771,2.5804,2.5899,2.5956,2.6036,2.6064,2.6078,2.6177,2.6166,2.6157,2.6127,2.6198,2.623,2.6244,2.6074,2.6074,2.6073,2.6073,0,0,2.5439,2.5535,2.5554,2.5591,2.5668,2.5725,2.5801,2.5877,2.5915,2.5977,2.604,2.6141,2.6132,2.6178,2.6197,2.6245,2.6322,2.6229,2.6231,2.6243,2.6432,2.6438,2.6453,2.6324,2.6326,2.6329,2.6426,0,2.5537,2.5671,2.5697,2.5813,2.588,2.5888,2.5953,2.6007,2.6038,2.6099,2.6134,2.6205,2.6188,2.6215,2.6263,2.6302,2.636,2.6296,2.6382,2.6385,2.6364,2.6471,2.6479,2.6568,2.6439,2.6441,2.6443,0,2.5671,2.5733,2.5855,2.5919,2.5948,2.6007,2.6077,2.6135,2.6196,2.6215,2.6264,2.6277,2.6355,2.6321,2.6427,2.6383,2.6419,2.6444,2.6448,2.6457,2.6418,2.6482,2.6597,2.661,2.6464,2.6462,2.6461,0,2.5732,2.5846,2.5933,2.5964,2.6043,2.6083,2.6117,2.6175,2.6218,2.628,2.6307,2.6378,2.6416,2.647,2.65,2.6473,2.6604,2.6573,2.6621,2.662,2.6649,2.6646,2.677,2.6674,2.6673,2.6673,2.6673,0,2.584,2.5914,2.5961,2.6014,2.6096,2.6125,2.6205,2.624,2.629,2.635,2.6362,2.6417,2.6455,2.6516,2.654,2.6623,2.6641,2.6658,2.6664,2.6657,2.6654,2.6681,2.6676,2.6677,2.6676,2.6675,2.6675,0,2.5922,2.5957,2.6052,2.6116,2.6134,2.6192,2.6247,2.6299,2.6329,2.6404,2.6423,2.6471,2.6542,2.6578,2.6669,2.6685,2.6778,2.678,2.6757,2.6759,2.6804,2.6799,2.695,2.697,2.686,2.6861,2.6862,0,2.5988,2.6045,2.6114,2.6154,2.6189,2.6254,2.6297,2.6326,2.6371,2.6441,2.6484,2.6556,2.6615,2.6729,2.6771,2.6839,2.6843,2.689,2.6853,2.6843,2.6842,2.6837,2.6842,2.6897,2.6898,2.6899,2.69,0,2.6101,2.6114,2.6175,2.6241,2.6292,2.6346,2.6399,2.6431,2.6469,2.6518,2.659,2.6636,2.6725,2.6796,2.6866,2.6902,2.6907,2.6911,2.6925,2.6919,2.6902,2.691,2.6774,2.6908,2.6907,2.6906,2.6906,2.6906,2.6177,2.6226,2.6281,2.6348,2.639,2.6439,2.6489,2.6524,2.6585,2.6659,2.6673,2.6749,2.6805,2.69,2.6937,2.6997,2.6986,2.7008,2.7013,2.7018,2.7019,2.6893,2.701,2.701,2.701,2.701,2.7009,0,2.6288,2.6323,2.6384,2.6457,2.6509,2.6507,2.6565,2.6608,2.6675,2.6726,2.6783,2.6864,2.6932,2.6978,2.7047,2.7085,2.7089,2.7102,2.7099,2.7107,2.7025,2.7005,2.7098,2.7098,2.7098,2.7098,2.7098,2.7097,2.6353,2.6435,2.6454,2.6557,2.6592,2.6665,2.6698,2.6742,2.6783,2.6873,2.6928,2.6957,2.7006,2.7078,2.7139,2.7151,2.7175,2.7188,2.7199,2.7122,2.7113,2.7104,2.7085,2.7193,2.7193,2.7276,2.7276,2.7277]},{"header":{"parameterUnit":"m.s-1","parameterCategory":1,"la1":30.2991,"la2":30.254,"lo1":-89.0895,"lo2":-89.0444,"dy":0.0017,"dx":0.0017,"nx":28,"ny":28,"refTime":"2024-06-08T21:00:00:Z","depth":0,"parameterNumber":3,"parameterNumberName":"V-component_of_WINDS"},"data":[0,0,0,0,0,0,0,0,0,0,0,0,0,0,0,0,0,0,0,0,0,0,0,0,0,0,0,0,0,0,0,0,0,0,0,0,0,0,0,0,0,0,0,0,0,0,0,0,0,0,0,0,0,0,0,0,0,0,1.0728,1.0728,0,1.0798,1.0799,1.08,1.0789,1.0787,1.0786,1.0785,1.086,1.0863,1.0866,0,0,0,0,0,0,0,0,0,0,0,0,0,1.0584,1.0587,1.0728,1.0728,1.0729,1.0798,1.0799,1.08,1.0789,1.0787,1.0786,1.0784,1.0859,1.0863,1.0867,0,0,0,0,0,0,0,0,0,0,0,0,0,1.065,1.0588,1.0727,1.0732,1.0733,1.0798,1.0799,1.08,1.0789,1.0787,1.0785,1.0784,1.0858,1.0863,1.0867,1.0933,0,0,1.0882,1.0884,0,0,0,0,0,0,0,0,1.0646,1.0655,1.073,1.0732,1.0733,1.0783,1.0776,1.0845,1.079,1.0768,1.0785,1.0783,1.0836,1.0843,1.086,1.0937,1.094,1.0882,1.0885,1.0887,1.0888,0,0,0,0,0,0,0,1.0642,1.0652,1.0756,1.0731,1.0733,1.0731,1.0738,1.0789,1.0812,1.077,1.0769,1.0777,1.0837,1.0855,1.0862,1.0941,1.0882,1.0886,1.0889,1.0891,1.1074,1.1076,0,0,0,0,0,0,1.0635,1.0648,1.0753,1.0758,1.0684,1.0735,1.0743,1.0769,1.0811,1.0816,1.0779,1.0776,1.0848,1.0856,1.0864,1.0944,1.0887,1.0891,1.0894,1.1072,1.1074,1.1076,0,0,0,0,0,0,1.0632,1.0645,1.0751,1.0703,1.0716,1.0739,1.0768,1.0771,1.079,1.0818,1.0822,1.0794,1.0847,1.0858,1.0916,1.0946,1.0894,1.0898,1.1069,1.1073,1.1075,1.1103,0,0,0,0,0,0,1.0628,1.0644,1.0669,1.0703,1.0719,1.0801,1.077,1.0774,1.0798,1.0795,1.0833,1.0838,1.0846,1.0909,1.092,1.0952,1.0901,1.1067,1.1071,1.1074,1.11,1.1107,1.1113,0,0,0,0,0,1.0623,1.0675,1.067,1.0683,1.075,1.0802,1.0811,1.0819,1.08,1.0826,1.0843,1.0836,1.094,1.0915,1.0928,1.0961,1.1065,1.107,1.1074,1.1097,1.1105,1.1113,0,0,0,0,0,0,1.0645,1.068,1.0675,1.0739,1.0768,1.08,1.0833,1.0828,1.0864,1.086,1.087,1.0878,1.0937,1.0955,1.0925,1.1026,1.1,1.1007,1.1013,1.1021,1.1028,1.1023,1.0905,0,0,0,0,0,1.0657,1.0696,1.0724,1.0778,1.0792,1.081,1.0833,1.0837,1.0867,1.0879,1.0901,1.0932,1.0971,1.0997,1.1035,1.1101,1.1109,1.113,1.1137,1.1142,1.1149,1.1185,1.1194,1.1091,1.1091,1.1091,0,0,1.0684,1.0707,1.0731,1.0783,1.0806,1.0846,1.0821,1.0864,1.0894,1.0886,1.0942,1.0959,1.0993,1.1056,1.1084,1.1072,1.1179,1.1148,1.1152,1.1156,1.119,1.12,1.1209,1.1095,1.1094,1.1093,0,0,1.0752,1.0773,1.082,1.0842,1.0876,1.0887,1.0898,1.0931,1.0941,1.0997,1.0991,1.1027,1.1095,1.1119,1.114,1.1214,1.1209,1.1226,1.1261,1.1296,1.1304,1.1312,1.1338,1.1347,1.1233,1.1233,1.1233,0,1.078,1.084,1.0845,1.0889,1.0912,1.0904,1.0952,1.0973,1.1018,1.1034,1.1019,1.1103,1.1126,1.1193,1.1211,1.1228,1.1241,1.1223,1.1302,1.131,1.1317,1.1342,1.1352,1.1235,1.1234,1.1234,1.1234,0,1.0873,1.0914,1.0948,1.0989,1.1016,1.1062,1.1074,1.11,1.11,1.1113,1.1169,1.1195,1.1238,1.1254,1.1256,1.1321,1.1313,1.13,1.1274,1.1328,1.1352,1.1362,1.1237,1.1237,1.1236,1.1236,0,0,1.0959,1.1001,1.1014,1.1032,1.1067,1.1099,1.1144,1.1184,1.1206,1.1236,1.1274,1.133,1.1318,1.1342,1.1346,1.1376,1.1433,1.136,1.1361,1.1373,1.1507,1.1517,1.1528,1.1429,1.1431,1.1432,1.1504,0,1.1031,1.1109,1.1114,1.1185,1.1223,1.1215,1.1253,1.1279,1.1292,1.1326,1.1339,1.1379,1.136,1.1374,1.1403,1.142,1.146,1.1415,1.1465,1.1467,1.1458,1.154,1.1552,1.1618,1.1513,1.1515,1.1516,0,1.1126,1.1157,1.1231,1.1259,1.1275,1.131,1.1346,1.1379,1.1408,1.1414,1.144,1.1439,1.1484,1.1455,1.1519,1.1488,1.1508,1.1519,1.1522,1.1528,1.1496,1.1549,1.1639,1.165,1.1531,1.153,1.1529,0,1.1181,1.1242,1.1294,1.131,1.1344,1.1369,1.1384,1.1411,1.1434,1.1466,1.1481,1.1518,1.1538,1.1567,1.1576,1.1554,1.1639,1.1611,1.1646,1.1646,1.1666,1.1664,1.1761,1.1677,1.1677,1.1677,1.1676,0,1.1262,1.1307,1.1319,1.1352,1.1402,1.1407,1.1457,1.1471,1.1495,1.153,1.1525,1.1558,1.1567,1.1601,1.1609,1.166,1.1669,1.1676,1.1677,1.1677,1.1676,1.1692,1.1688,1.1679,1.1679,1.1678,1.1678,0,1.1334,1.1343,1.1399,1.1426,1.1434,1.147,1.1493,1.1524,1.1534,1.1578,1.1589,1.1606,1.1646,1.1657,1.1705,1.171,1.177,1.1767,1.176,1.1761,1.1795,1.1792,1.1906,1.1921,1.1826,1.1827,1.1828,0,1.1385,1.1419,1.1449,1.1471,1.1487,1.1524,1.1546,1.1552,1.1576,1.161,1.1637,1.1676,1.1708,1.1772,1.1789,1.1825,1.1824,1.1861,1.183,1.1827,1.1825,1.1823,1.1827,1.1868,1.1869,1.1869,1.187,0,1.1474,1.1477,1.151,1.1544,1.1571,1.1598,1.1625,1.1643,1.1652,1.168,1.172,1.1744,1.1792,1.1831,1.1868,1.1884,1.1879,1.1879,1.189,1.189,1.1885,1.1889,1.1777,1.1877,1.1877,1.1876,1.1876,1.1875,1.1538,1.1568,1.1593,1.1629,1.1649,1.1673,1.1703,1.1716,1.1749,1.1788,1.1789,1.1833,1.1859,1.1907,1.1925,1.196,1.1949,1.1963,1.1967,1.1971,1.1974,1.1878,1.1966,1.1966,1.1966,1.1966,1.1966,0,1.1628,1.1643,1.1676,1.1712,1.174,1.173,1.1758,1.1783,1.1821,1.1845,1.1876,1.1921,1.1959,1.1977,1.2014,1.2038,1.2036,1.2047,1.2046,1.205,1.1982,1.197,1.2048,1.2048,1.2048,1.2048,1.2048,1.2048,1.1678,1.1728,1.1733,1.1792,1.1807,1.1849,1.1866,1.1888,1.1907,1.1958,1.1988,1.1999,1.2021,1.2059,1.2092,1.2097,1.2111,1.2124,1.2127,1.2063,1.2055,1.2047,1.2036,1.2126,1.2127,1.2192,1.2193,1.2193]}]]